Starlink 5661

operational
NORAD ID: 55343 Int'l Des: 2023-013 Owner: SPXS Country: US Constellation: starlink
LEOCIRCULAR

Über Starlink 5661

Beschreibung wird geladen...

Live-Position

3D-Globus wird geladen...

Nächste Überflüge

Höhenverlauf

Altitude vs Time

uPlot chart will show altitude changes over time

Zweizeiliger Elementsatz

1 55343U 23013N 25258.48805470 .00000127 00000-0 24463-4 0 9990
2 55343 43.0037 172.4052 0001177 266.0009 94.0698 15.02533873145350
Epoch: 15. Sept. 2025 • Age: 11 hours

Aktueller Status

Höhe 562.9 km
Geschwindigkeit 7.58 km/s
Subsatellitenpunkt -19.08°S, 171.78°E
Startdatum 26. Jan. 2023
Alter 2.6 years
Typ internet

Technische Details

Klassifizierung Payload
Masse 305.00 kg
Trockenmasse 290.00 kg
Gesamtmasse 305.00 kg
Länge 0.20 m
Durchmesser 2.80 m
Spannweite 9.00 m
Form Box + pan
Hersteller SPXS
Bus-Typ Starlink
Phasenstatus In Orbit
Besitzer/Staat SPXS/US

Große Konstellationen

Loading constellations...